CW4326 Weather Reports


Display with metric or nautical units.
time (UTC)temp
F
wind
direction
speed
MPH
gust
MPH
rain 1hr
in
rain 24hr
in
rain mn
in
humidity
%
barometer
mb
20260508015105 45 133 0.0 0.0 0.00 0.00 0.00 88 1017.8
20260508014105 46 133 0.0 0.0 0.00 0.00 0.00 88 1017.9
20260508013605 46 133 0.0 0.0 0.00 0.00 0.00 88 1017.9
20260508013105 46 133 0.0 0.0 0.00 0.00 0.00 88 1017.9
20260508011105 47 133 0.0 0.0 0.00 0.00 0.00 88 1017.8
20260508010605 47 133 0.0 0.0 0.00 0.00 0.00 88 1017.8
20260508005605 47 133 0.0 0.0 0.00 0.00 0.00 88 1017.8
20260508005106 47 133 0.0 0.0 0.00 0.00 0.00 88 1017.9
20260508004605 47 133 0.0 0.0 0.00 0.00 0.00 88 1017.9
20260508003605 48 133 0.0 0.0 0.00 0.00 0.00 88 1017.9
20260508003105 48 133 0.0 0.0 0.00 0.00 0.00 88 1017.9
20260508002604 48 133 0.0 0.0 0.00 0.00 0.00 88 1018.0
20260508002105 48 133 0.0 0.0 0.00 0.00 0.00 88 1018.0
20260508001605 48 133 0.0 0.0 0.00 0.00 0.00 88 1017.9
20260508001105 48 133 0.0 0.0 0.00 0.00 0.00 88 1018.0
20260507235606 48 133 0.0 0.0 0.00 0.00 0.00 88 1018.1
20260507234105 48 133 0.0 0.0 0.00 0.00 0.00 88 1018.2
20260507233605 48 133 0.0 0.0 0.00 0.00 0.00 88 1018.3
20260507232605 48 133 0.0 2.0 0.00 0.00 0.00 87 1018.3
20260507231105 48 133 0.0 1.0 0.00 0.00 0.00 87 1018.4
20260507230605 48 133 0.0 1.0 0.00 0.00 0.00 87 1018.4
20260507225605 48 133 0.0 0.0 0.00 0.00 0.00 87 1018.5
20260507223605 48 133 0.0 0.0 0.00 0.00 0.00 86 1018.5
20260507222605 49 133 0.0 0.0 0.00 0.00 0.00 86 1018.4
20260507222105 49 133 0.0 0.0 0.00 0.00 0.00 86 1018.5
20260507221605 49 133 0.0 0.0 0.00 0.00 0.00 86 1018.5
20260507221105 49 133 0.0 0.0 0.00 0.00 0.00 86 1018.5
20260507220605 49 133 0.0 1.0 0.00 0.00 0.00 86 1018.5
20260507220105 49 133 0.0 1.0 0.00 0.00 0.00 86 1018.5
20260507214605 49 133 0.0 1.0 0.00 0.00 0.00 85 1018.6
20260507213105 49 133 0.0 0.0 0.00 0.00 0.00 85 1018.6
20260507211605 49 133 0.0 0.0 0.00 0.00 0.00 85 1018.6
20260507211105 49 133 0.0 0.0 0.00 0.00 0.00 84 1018.6
20260507210605 49 133 0.0 3.0 0.00 0.00 0.00 84 1018.5
20260507210105 49 134 0.0 2.0 0.00 0.00 0.00 84 1018.5
20260507205106 49 134 0.0 2.0 0.00 0.00 0.00 84 1018.4
20260507204105 50 134 0.0 2.0 0.00 0.00 0.00 84 1018.3
20260507203605 50 134 0.0 3.0 0.00 0.00 0.00 84 1018.2
20260507203105 50 158 0.0 1.0 0.00 0.00 0.00 84 1018.2
20260507201605 50 104 1.0 3.0 0.00 0.00 0.00 83 1018.0
20260507201105 50 160 0.0 3.0 0.00 0.00 0.00 83 1018.0
20260507194605 50 167 0.0 3.0 0.00 0.00 0.00 82 1017.8
20260507194105 50 126 2.0 5.0 0.00 0.00 0.00 82 1017.8
20260507193605 50 166 0.0 5.0 0.00 0.00 0.00 82 1017.8
20260507192605 50 118 1.0 5.0 0.00 0.00 0.00 82 1017.8
20260507191605 51 131 0.0 2.0 0.00 0.00 0.00 81 1017.8
20260507190105 51 160 0.0 3.0 0.00 0.00 0.00 81 1017.8
20260507185106 51 118 1.0 3.0 0.00 0.00 0.00 81 1017.8
20260507184105 51 137 1.0 3.0 0.00 0.00 0.00 80 1017.8
20260507182605 51 118 0.0 2.0 0.00 0.00 0.00 80 1017.7
20260507182105 51 118 0.0 3.0 0.00 0.00 0.00 80 1017.6
20260507181605 51 120 0.0 2.0 0.00 0.00 0.00 80 1017.6
20260507181105 51 120 0.0 3.0 0.00 0.00 0.00 79 1017.6
20260507180605 52 141 1.0 5.0 0.00 0.00 0.00 79 1017.6
20260507180105 52 143 1.0 3.0 0.00 0.00 0.00 79 1017.5
20260507174105 52 84 1.0 3.0 0.00 0.00 0.00 78 1017.6
20260507173605 52 105 1.0 5.0 0.00 0.00 0.00 78 1017.5
20260507172605 52 117 0.0 3.0 0.00 0.00 0.00 77 1017.5
20260507172105 52 117 1.0 3.0 0.00 0.00 0.00 77 1017.5
20260507165105 53 119 1.0 7.0 0.00 0.00 0.00 77 1017.4
20260507164105 53 164 2.0 9.0 0.00 0.00 0.00 77 1017.4
20260507160605 53 56 2.0 9.0 0.00 0.00 0.00 75 1017.5
20260507160105 53 94 2.0 8.0 0.00 0.00 0.00 75 1017.5
20260507155605 53 105 2.0 7.0 0.00 0.00 0.00 75 1017.4
20260507155105 54 131 2.0 8.0 0.00 0.00 0.00 75 1017.5
20260507154105 54 127 2.0 8.0 0.00 0.00 0.00 74 1017.5
20260507152105 55 81 1.0 9.0 0.00 0.00 0.00 74 1017.5
20260507151605 55 87 1.0 6.0 0.00 0.00 0.00 73 1017.5
20260507151105 55 72 0.0 3.0 0.00 0.00 0.00 73 1017.5
20260507150605 55 109 1.0 7.0 0.00 0.00 0.00 72 1017.5
20260507145605 55 94 0.0 3.0 0.00 0.00 0.00 72 1017.4
20260507145105 55 69 1.0 7.0 0.00 0.00 0.00 71 1017.4
20260507143605 56 82 1.0 7.0 0.00 0.01 0.00 70 1017.4
20260507143105 57 137 0.0 3.0 0.00 0.01 0.00 69 1017.4
20260507142105 57 73 1.0 3.0 0.00 0.01 0.00 70 1017.4
20260507141605 57 94 1.0 3.0 0.00 0.01 0.00 71 1017.5
20260507140605 56 58 2.0 6.0 0.00 0.01 0.00 70 1017.5
20260507134106 57 95 2.0 7.0 0.00 0.02 0.00 68 1017.8
20260507133105 59 114 2.0 5.0 0.00 0.02 0.00 68 1017.7
20260507132605 58 67 2.0 7.0 0.00 0.02 0.00 73 1017.7
20260507132105 56 77 1.0 3.0 0.00 0.02 0.00 75 1017.8
20260507131605 55 84 1.0 7.0 0.00 0.02 0.00 73 1017.8
20260507131105 55 36 1.0 7.0 0.00 0.02 0.00 73 1017.8
20260507124605 56 25 0.0 3.0 0.00 0.02 0.00 72 1017.8
20260507124105 56 355 0.0 1.0 0.00 0.02 0.00 70 1017.7
20260507122105 57 76 1.0 3.0 0.00 0.02 0.00 70 1017.7
20260507121605 57 312 0.0 2.0 0.00 0.02 0.00 70 1017.8
20260507121105 56 312 0.0 1.0 0.00 0.02 0.00 72 1017.9
20260507115105 55 312 2.0 3.0 0.00 0.02 0.00 71 1018.0
20260507114605 56 58 0.0 2.0 0.00 0.02 0.00 70 1018.0
20260507111605 55 81 0.0 3.0 0.00 0.05 0.00 74 1018.1
20260507111105 54 76 1.0 3.0 0.00 0.06 0.00 75 1018.2
20260507104104 53 120 0.0 0.0 0.00 0.08 0.00 74 1018.2
20260507103105 54 132 1.0 5.0 0.00 0.09 0.00 75 1018.2
20260507101105 53 64 2.0 3.0 0.00 0.10 0.00 77 1018.2
20260507100105 53 70 1.0 3.0 0.00 0.10 0.00 76 1018.1
20260507095105 53 69 0.0 1.0 0.00 0.10 0.00 76 1018.1
20260507092605 52 62 0.0 1.0 0.00 0.10 0.00 77 1018.1
20260507092105 52 62 0.0 3.0 0.00 0.10 0.00 77 1018.0
20260507090105 51 52 0.0 1.0 0.00 0.10 0.00 78 1018.0
20260507085605 51 52 1.0 3.0 0.00 0.10 0.00 79 1018.1
20260507085105 50 24 0.0 0.0 0.00 0.10 0.00 78 1018.0
20260507084605 50 24 0.0 0.0 0.00 0.10 0.00 78 1018.1
20260507082605 50 24 0.0 1.0 0.00 0.11 0.00 79 1018.0
20260507082105 50 24 0.0 0.0 0.00 0.11 0.00 80 1018.0
20260507081105 50 338 0.0 1.0 0.00 0.11 0.00 79 1017.9
20260507075605 50 106 0.0 1.0 0.00 0.11 0.00 81 1017.8
20260507075105 49 106 0.0 3.0 0.00 0.11 0.00 82 1017.8
20260507074604 49 106 0.0 1.0 0.00 0.11 0.00 82 1017.8
20260507074105 49 128 0.0 1.0 0.00 0.11 0.00 82 1017.7
20260507073605 49 133 0.0 2.0 0.00 0.11 0.00 83 1017.7
20260507072605 49 143 0.0 0.0 0.00 0.13 0.00 83 1017.5
20260507071104 48 143 0.0 2.0 0.00 0.16 0.00 85 1017.5
20260507070605 48 143 0.0 2.0 0.00 0.16 0.00 85 1017.5
20260507064605 48 147 0.0 0.0 0.00 0.17 0.00 88 1017.5
20260507063105 47 147 0.0 0.0 0.00 0.17 0.00 90 1017.5
20260507061105 46 147 0.0 0.0 0.00 0.23 0.00 90 1017.4
20260507060105 46 147 0.0 0.0 0.00 0.26 0.00 91 1017.3
20260507052605 44 243 0.0 0.0 0.00 0.30 0.00 91 1017.0
20260507051605 44 243 0.0 0.0 0.00 0.30 0.00 91 1017.0
20260507051107 44 243 0.0 0.0 0.00 0.30 0.00 91 1017.0
20260507050105 44 243 0.0 0.0 0.00 0.30 0.00 91 1017.0
20260507045605 44 243 0.0 0.0 0.00 0.30 0.00 91 1017.0
20260507045105 44 243 0.0 0.0 0.00 0.30 0.00 91 1016.9
20260507044105 44 243 0.0 0.0 0.00 0.30 0.00 91 1016.9
20260507043605 44 243 0.0 0.0 0.00 0.30 0.00 90 1016.9
20260507042605 44 46 0.0 0.0 0.00 0.30 0.00 90 1016.8
20260507040605 44 46 0.0 0.0 0.00 0.30 0.00 90 1016.8
20260507040105 44 46 0.0 0.0 0.00 0.30 0.00 90 1016.6
20260507035605 44 46 0.0 0.0 0.00 0.30 0.00 90 1016.6
20260507035104 44 46 0.0 0.0 0.00 0.30 0.00 90 1016.6
20260507034605 44 46 0.0 0.0 0.00 0.30 0.00 90 1016.5
20260507034105 44 46 0.0 0.0 0.00 0.30 0.00 90 1016.5
20260507025605 44 46 0.0 0.0 0.00 0.30 0.00 90 1016.4
20260507025105 44 46 0.0 0.0 0.00 0.30 0.00 90 1016.4
20260507024105 44 46 0.0 0.0 0.00 0.30 0.00 90 1016.4
20260507022605 44 46 0.0 0.0 0.00 0.30 0.00 89 1016.5
20260507021605 44 46 0.0 0.0 0.00 0.30 0.00 89 1016.5
20260507020605 44 46 0.0 0.0 0.00 0.30 0.00 89 1016.4